RH
84 100 100 100 100 85 100 100 100 94 100 100 100 81 100 100 100 96 80 32 35 31 29 44 24 18 23 29 31 29 31 30 25 28 55 40 41 38 33 72 100 96 61 42 47
89 89 93 100 100 88 82 100 100 100 94 100 100 100 100 100 100 100 90 46 68 36 30 34 38 19 20 24 29 32 36 27 24 34 55 44 33 38 32 29 62 91 100 93 59
45 67 85 92 100 100 77 99 100 100 100 96 100 100 100 92 100 100 88 97 87 93 30 30 43 24 19 20 26 31 59 48 24 30 61 58 35 37 29 29 32 40 85 97 84
18 27 58 68 83 98 100 79 100 100 100 100 95 100 100 89 91 100 100 100 100 100 63 32 34 36 20 19 21 29 34 30 26 26 48 61 51 40 32 30 31 37 38 62 71
9 12 18 33 53 67 92 99 90 88 100 100 100 100 100 100 93 91 100 98 100 100 76 70 32 38 31 19 19 25 30 27 24 24 39 58 59 47 39 30 28 38 42 33 43
9 9 10 13 21 48 57 78 89 79 75 86 100 100 99 98 100 88 86 81 89 100 100 64 92 30 38 24 18 22 27 26 27 29 41 53 58 53 45 36 29 35 42 42 41
11 11 10 10 13 19 43 56 68 81 100 70 91 100 100 100 100 100 100 97 94 100 89 93 84 41 34 34 20 20 24 25 25 26 49 58 54 54 48 41 35 28 28 37 35
10 11 12 10 10 12 15 30 50 66 81 100 82 80 100 100 100 100 100 100 84 81 99 100 74 48 32 34 23 21 21 24 24 24 28 51 57 55 45 44 40 34 33 27 37
8 8 8 9 10 8 10 14 24 38 61 85 98 84 89 100 100 100 100 100 99 94 94 94 76 61 40 32 29 18 20 20 20 22 25 23 51 70 41 42 41 38 39 31 33
10 9 8 7 7 8 7 9 12 16 28 49 82 95 82 100 100 100 95 100 100 100 87 83 78 68 50 36 30 27 21 23 21 21 22 20 28 62 50 35 38 37 39 35 32
9 8 8 8 7 6 7 7 7 9 11 23 42 62 100 98 100 100 100 100 93 90 71 60 53 62 92 71 61 31 25 18 24 29 20 20 21 38 52 40 37 40 42 39 32
8 8 8 8 7 7 7 6 6 6 8 11 20 38 63 100 94 100 95 100 97 100 100 69 29 84 100 87 79 58 30 25 25 25 22 20 19 22 52 49 41 42 43 46 36
8 8 8 7 8 7 8 9 7 6 6 7 12 19 44 60 96 100 100 100 100 100 100 100 84 100 77 98 94 76 54 45 32 36 22 21 19 19 29 44 43 43 48 47 46
8 7 7 7 8 7 7 8 8 6 6 6 6 10 18 40 66 100 97 99 100 99 100 92 100 100 65 79 91 81 99 80 57 65 26 19 17 18 21 35 44 46 38 46 52
7 6 6 7 7 7 8 7 6 6 5 6 6 6 10 18 37 67 100 91 97 100 100 82 99 90 66 61 91 82 100 84 100 88 40 24 13 20 20 23 41 50 47 40 45
7 6 6 6 7 7 6 5 5 4 4 5 6 6 6 11 21 39 69 93 84 100 100 100 100 84 84 98 92 100 97 84 93 84 48 36 18 21 17 23 26 43 51 46 41
7 6 6 6 6 6 6 5 4 3 4 6 7 7 7 7 12 19 37 69 79 68 99 100 100 100 83 89 100 89 90 83 58 48 34 73 39 23 22 20 24 34 39 44 46
7 6 5 5 5 6 6 6 4 5 5 8 7 8 7 7 8 11 17 39 65 75 80 100 100 100 100 88 99 99 99 85 70 58 55 92 43 38 53 35 23 24 26 29 40
10 6 6 5 5 5 5 5 6 8 9 8 8 8 8 7 7 8 10 18 42 61 69 87 100 100 100 100 100 100 99 77 100 98 86 65 58 50 81 63 67 26 20 24 25
11 9 6 5 5 5 4 6 8 9 8 7 7 7 9 8 8 8 9 11 20 46 60 85 99 100 100 100 100 100 91 100 80 75 68 58 50 54 90 100 99 81 34 21 22
12 13 8 5 4 6 8 7 7 9 9 9 10 8 11 9 9 8 9 9 12 20 56 74 85 100 100 100 99 100 100 98 84 68 66 50 35 68 90 97 99 100 100 46 27
13 13 12 7 4 4 6 7 6 6 7 8 9 9 10 12 10 10 8 9 10 12 24 60 75 92 100 100 100 100 100 100 100 74 60 63 49 68 88 100 100 100 100 97 60
21 15 13 11 6 4 4 6 7 5 5 8 9 11 10 12 10 10 10 9 9 10 14 25 56 72 97 100 100 100 100 100 100 77 48 44 32 88 77 74 73 75 100 99 100
29 21 13 12 11 6 4 4 7 7 5 5 8 9 10 10 11 12 12 11 10 10 11 14 22 50 68 87 100 100 100 100 100 100 94 62 57 98 86 69 73 73 86 90 80
34 27 16 12 12 11 6 5 4 6 6 5 6 7 9 9 11 13 13 14 12 11 11 13 14 19 43 65 89 100 100 100 100 100 99 80 62 92 100 100 100 100 100 100 100
45 34 23 15 12 12 10 6 4 4 5 7 6 6 8 8 8 10 14 17 16 13 11 12 12 14 17 38 63 75 81 100 93 100 100 90 60 78 100 100 100 99 93 97 100
46 44 33 17 14 12 11 10 8 4 4 5 6 7 6 9 10 9 12 16 16 13 12 9 8 10 12 15 35 53 53 61 83 98 100 95 88 100 95 84 91 100 100 100 91
Wind_Speed
103 109 105 103 100 102 102 94 87 84 83 77 73 74 72 72 62 59 56 51 48 46 45 57 61 61 59 57 55 49 49 51 42 32 32 34 29 25 14 17 11 12 11 7 6
102 106 111 110 107 102 106 103 95 90 87 86 78 79 78 73 66 61 65 55 51 51 49 52 62 64 64 61 58 50 52 56 39 36 34 38 35 28 19 18 19 15 7 13 8
105 107 108 111 112 109 106 105 105 100 92 90 83 82 87 81 72 67 67 61 58 55 53 49 59 63 67 65 62 57 56 63 48 40 35 38 38 30 24 19 19 19 14 10 11
102 104 109 111 113 117 113 110 110 108 99 96 92 91 84 85 82 73 74 64 61 59 56 54 55 64 68 69 67 62 62 65 54 44 40 39 40 35 30 24 22 20 17 14 14
101 104 108 111 113 117 120 117 114 115 110 102 100 96 99 87 82 82 82 74 69 66 65 59 55 62 68 74 72 66 66 65 57 45 43 42 43 39 35 30 24 22 22 20 21
110 109 108 111 113 117 119 122 122 119 119 113 109 102 99 93 92 89 86 80 77 73 69 64 64 62 68 71 73 69 68 65 61 48 46 46 47 41 43 35 28 24 24 23 21
102 111 112 114 114 117 120 121 124 125 122 121 117 112 105 94 90 94 86 84 82 79 74 72 68 63 62 71 73 72 71 68 64 56 53 54 51 46 48 36 33 29 26 24 23
90 99 108 112 118 119 120 125 124 127 129 126 123 122 110 97 103 98 94 89 88 85 81 78 75 70 64 71 74 76 75 71 70 63 59 60 50 54 51 44 37 32 33 29 26
92 95 98 105 112 119 123 123 126 127 129 133 128 125 115 107 102 103 100 93 91 89 88 84 80 75 70 66 75 78 73 73 75 71 69 65 54 61 55 48 40 38 39 35 32
87 92 97 102 102 108 118 126 127 128 132 133 136 130 121 115 115 109 109 106 101 102 96 94 86 80 76 70 61 69 74 75 75 76 79 70 58 67 62 49 44 42 43 42 37
84 87 91 95 102 106 106 114 125 133 133 134 135 134 130 128 124 119 114 111 108 106 99 99 95 82 75 73 70 71 73 77 79 82 81 75 66 67 64 53 47 47 47 47 43
81 86 89 90 94 99 103 108 112 127 133 138 137 133 136 134 127 128 125 118 113 104 106 108 93 81 84 85 79 75 71 68 78 85 86 81 73 67 70 62 56 53 53 51 48
74 79 84 89 92 97 100 106 115 119 127 133 138 136 135 139 134 132 135 123 116 113 112 107 95 94 92 92 86 79 72 68 69 82 89 86 78 71 69 66 62 59 57 54 53
60 65 72 79 85 91 95 106 113 116 119 123 132 135 135 139 138 139 138 135 123 117 116 117 107 106 101 97 92 86 75 77 78 82 78 89 81 78 66 66 66 64 61 59 58
53 58 62 68 75 84 92 99 106 109 115 115 122 127 137 143 133 140 141 143 133 118 124 116 111 109 112 96 96 84 87 87 87 85 83 84 77 74 71 65 69 68 69 65 65
43 49 55 63 72 83 88 93 99 105 99 103 114 118 130 135 136 139 146 146 142 135 128 115 116 120 106 98 104 97 98 99 97 93 94 72 76 58 71 70 71 75 78 74 71
36 40 46 54 66 73 78 87 89 90 84 93 105 115 119 129 135 140 145 147 146 145 134 117 118 116 113 110 109 107 105 104 102 99 86 76 81 51 56 67 76 80 84 81 75
30 33 37 43 49 56 66 74 70 68 77 87 99 110 117 124 130 138 145 146 148 150 144 130 126 122 115 113 110 107 108 106 103 98 88 88 79 62 58 62 70 82 84 82 79
25 29 31 36 42 46 53 59 59 67 73 78 90 104 114 122 127 135 143 144 145 148 146 140 130 125 119 114 117 113 119 104 108 105 103 98 82 78 68 64 66 69 83 84 82
26 24 26 28 33 37 41 43 53 65 74 77 84 89 106 119 125 131 138 141 143 146 143 145 141 128 121 121 120 121 114 120 120 118 112 99 90 83 73 70 69 66 70 76 85
28 24 23 25 27 30 36 44 53 63 69 78 81 86 98 112 123 129 136 140 145 148 148 144 149 138 135 134 123 124 125 127 125 121 116 110 100 84 77 76 76 74 73 71 74
37 26 23 23 24 27 34 43 52 57 60 70 79 81 92 106 118 128 133 140 145 147 151 146 149 148 142 135 132 129 126 126 131 127 121 111 104 91 82 78 81 79 78 76 73
45 35 25 21 22 25 31 39 44 53 56 64 73 80 91 103 112 122 129 134 141 141 148 148 152 151 151 147 143 141 133 128 129 126 126 120 101 96 93 90 88 88 86 82 83
52 43 32 22 20 23 27 34 42 52 54 59 68 79 88 97 107 117 122 130 138 142 144 150 153 155 147 146 141 144 141 136 133 133 127 126 106 90 91 93 90 90 88 87 87
57 49 39 31 21 19 24 32 39 49 56 62 68 67 78 90 103 109 116 126 136 143 145 148 154 154 153 149 150 152 148 145 144 138 137 127 119 100 91 90 90 89 89 91 89
60 54 45 37 29 22 20 29 37 47 54 57 59 67 80 83 95 103 114 123 131 141 147 151 150 151 154 152 150 151 157 153 149 144 142 136 128 110 106 102 99 96 100 101 97
68 54 52 38 35 27 21 24 33 39 49 56 58 69 70 69 85 96 112 121 130 139 144 150 150 149 152 153 156 160 155 156 155 150 147 144 131 119 117 114 110 106 106 108 108
Wind_Direction
232 230 230 231 232 227 227 224 227 232 231 229 237 235 235 242 240 241 240 231 230 229 233 228 222 220 220 222 227 228 232 235 227 223 230 235 234 240 221 208 226 243 250 227 256
234 234 231 230 231 231 229 224 222 226 230 228 233 235 232 233 237 238 239 234 233 232 232 230 226 223 220 223 225 225 234 239 229 221 224 236 232 241 227 229 230 238 261 245 258
236 234 234 232 231 230 230 230 228 224 226 228 227 230 232 231 233 236 237 237 234 236 233 234 228 225 223 224 225 223 226 237 231 222 224 236 240 239 234 239 240 248 248 265 276
240 238 234 234 232 230 229 229 228 224 226 226 225 227 233 232 232 234 237 231 234 236 237 233 231 225 227 223 226 224 229 238 231 225 222 231 242 238 239 229 244 249 249 252 259
240 239 237 235 234 232 229 228 229 227 227 226 225 227 229 234 233 231 231 231 232 237 237 236 235 227 227 226 225 225 229 236 238 231 227 231 238 240 244 235 235 246 255 250 259
241 241 238 237 235 233 232 229 227 227 227 225 224 228 228 229 235 233 233 232 232 235 238 235 240 232 227 227 226 225 230 236 238 230 231 231 235 239 241 241 240 237 242 251 258
242 240 240 238 236 234 232 231 230 227 228 227 225 224 230 224 229 233 233 235 234 232 235 239 238 234 233 230 226 226 228 232 237 233 229 232 232 232 240 242 244 244 243 240 249
243 240 239 238 237 235 233 231 230 229 227 227 226 223 223 228 228 231 232 233 234 232 233 235 235 232 231 230 228 227 226 229 236 235 231 234 234 235 234 237 241 247 252 248 246
246 243 241 240 237 235 233 231 230 230 228 227 227 226 220 223 232 231 228 228 232 233 233 234 235 232 231 233 231 229 229 230 233 235 235 234 229 237 234 233 237 242 247 250 254
247 245 242 241 239 237 235 233 230 229 229 228 227 226 223 222 226 229 232 228 230 234 233 234 233 232 232 233 236 235 232 233 235 237 236 236 228 237 237 233 235 241 245 249 251
249 248 247 243 240 238 237 235 233 230 229 228 227 225 223 223 225 226 231 229 232 232 236 235 230 232 240 236 236 234 232 233 233 238 238 238 229 234 240 237 234 236 244 250 251
250 249 247 246 243 239 237 237 235 233 230 228 226 224 226 223 225 227 226 230 230 232 237 239 229 234 238 239 236 237 235 234 237 239 240 239 236 230 237 234 232 236 243 249 253
252 249 244 244 242 239 236 235 233 232 230 229 226 223 224 223 221 226 228 226 231 228 232 235 238 236 235 238 237 237 237 238 238 241 240 240 237 235 233 238 235 236 240 247 253
254 249 246 243 241 239 236 233 232 230 229 227 227 224 223 224 221 223 228 226 226 232 232 234 232 235 235 236 236 236 239 238 239 243 242 241 237 237 234 237 239 239 241 244 252
256 252 247 242 239 238 236 234 233 232 228 226 228 224 223 224 220 223 225 229 225 226 233 236 235 236 238 236 239 236 239 238 241 242 241 242 239 239 238 236 243 243 245 244 248
262 254 247 242 239 237 236 235 234 234 229 225 227 226 225 224 223 222 224 227 226 224 226 230 232 233 234 234 237 236 236 237 238 240 240 242 246 235 241 236 240 244 247 245 245
270 258 250 243 240 239 239 239 238 238 233 227 225 226 225 225 223 222 224 226 228 227 226 226 232 235 235 233 236 236 236 239 239 240 242 244 246 234 241 241 236 242 245 248 247
284 267 257 250 246 244 240 241 239 237 233 229 225 225 223 223 222 223 224 224 226 229 226 224 227 232 235 238 240 239 241 243 245 245 246 245 241 239 236 242 240 238 244 248 249
304 283 266 256 248 244 241 241 237 234 231 228 226 222 223 222 221 221 223 223 225 228 229 226 227 230 230 233 234 238 239 242 242 243 243 242 237 238 239 238 245 245 243 246 251
324 301 281 262 252 247 243 235 233 227 226 224 225 219 222 221 221 221 222 223 223 226 228 227 224 224 227 229 230 235 238 239 240 238 240 240 238 236 240 243 244 246 248 248 248
336 319 296 274 256 243 239 232 227 227 223 223 222 216 217 219 219 220 220 221 222 223 225 226 227 223 225 228 232 235 236 240 242 241 241 240 237 237 238 242 246 247 248 246 250
342 332 312 287 265 248 236 232 229 226 222 223 223 218 216 220 219 219 219 220 222 222 223 225 228 225 225 228 229 230 232 236 239 241 242 243 240 238 239 244 246 249 252 251 249
344 337 321 302 283 257 242 234 234 233 225 221 221 218 218 219 220 219 220 220 223 223 224 224 226 227 225 226 228 229 232 235 241 243 243 242 240 241 240 240 241 244 249 248 248
343 340 328 314 294 275 252 238 233 234 229 223 222 222 219 219 219 221 219 220 221 224 225 224 225 228 227 229 230 233 232 233 235 238 240 242 239 238 243 245 247 248 251 254 252
341 339 331 323 308 285 264 249 234 235 234 226 222 221 223 221 221 219 220 221 222 222 224 226 226 226 226 226 229 232 232 232 234 237 240 240 241 235 234 239 241 243 248 250 253
344 339 331 328 315 297 275 258 245 238 236 237 229 225 222 220 223 220 221 221 222 224 223 225 226 228 228 226 229 231 232 233 235 236 240 242 241 237 235 237 244 247 248 251 253
348 340 331 327 319 307 283 263 254 248 241 239 232 231 228 225 227 221 222 222 223 224 225 227 227 228 228 229 228 230 231 233 233 236 238 241 240 238 238 239 240 245 249 252 254